Regional Weather Roundup
Issued by NWS

Home | Current Version | Previous Version | Graphics & Text | Print | Product List | Glossary On
Versions: 1 2 3 4 5 6 7 8 9 10 11 12 13 14 15 16 17 18 19 20 21 22 23 24 25 26 27 28 29 30 31 32 33 34 35 36 37 38 39 40 41 42 43 44 45 46 47 48 49 50
000
ASUS43 KFSD 242302
RWRSD

WEATHER ROUNDUP FOR SOUTH DAKOTA
NATIONAL WEATHER SERVICE SIOUX FALLS SD
600 PM CDT FRI MAR 24 2017

NOTE: "FAIR" INDICATES FEW OR NO CLOUDS BELOW 12,000 FEET WITH NO
SIGNIFICANT WEATHER AND/OR OBSTRUCTIONS TO VISIBILITY.


SDZ001>005-009-010-012>017-250000-
NORTHWEST AND NORTH CENTRAL SOUTH DAKOTA

CITY           SKY/WX    TMP DP  RH WIND       PRES   REMARKS
BUFFALO          N/A     60  33  36 SE16G22   29.96F
FAITH            N/A     60  35  39 E9        30.06F
MOBRIDGE       SUNNY     57  31  37 E9        30.09S
$$

SDZ012>016-024>037-041>051-057-063-072>074-250000-
SOUTHWEST AND SOUTH CENTRAL SOUTH DAKOTA

CITY           SKY/WX    TMP DP  RH WIND       PRES   REMARKS
RAPID CTY ARPT SUNNY     61  28  28 E10       30.05F
PIERRE         SUNNY     56  31  38 E13       30.09S
CUSTER         PTSUNNY   50  25  37 E10       30.08S
ELLSWORTH AFB  SUNNY     60  28  30 CALM      30.05F
PHILIP         SUNNY     61  31  32 E12       30.07S
PINE RIDGE     PTSUNNY   58  30  34 E10       30.08S
SPEARFISH      FAIR      57  25  28 E9        30.05F
WINNER         FAIR      54  33  45 NE14      30.08S
$$

SDZ004>011-016>023-039-040-250000-
NORTHEAST SOUTH DAKOTA

CITY           SKY/WX    TMP DP  RH WIND       PRES   REMARKS
ABERDEEN       CLOUDY    49  30  48 NE12      30.16R
WATERTOWN      CLOUDY    39  33  79 NE13      30.11S
BROOKINGS      CLOUDY    40  34  79 N15G23    30.09S
SISSETON         N/A     43  35  73 NE14      30.15S
$$

SDZ017-020-022-023-036>040-048>070-250000-
SOUTHEAST SOUTH DAKOTA

CITY           SKY/WX    TMP DP  RH WIND       PRES   REMARKS
SIOUX FALLS    CLOUDY    41  37  86 N18       30.07R
HURON          MOSUNNY   46  35  65 NE13      30.11S
CHAMBERLAIN    CLOUDY    53  36  52 NE10      30.08F
MITCHELL       CLOUDY    46  37  71 N18       30.09F
YANKTON        CLOUDY    43  37  81 N14       30.06S
$$

ABBREVIATIONS USED IN REMARKS
   TC - TEMPERATURE IN CELSIUS
  WCI - WIND CHILL INDEX
   HX - HEAT INDEX
  VSB - VISIBILITY





USA.gov is the U.S. government's official web portal to all federal, state and local government web resources and services.